Terug naar catalogus

ONEWEB-0194

ActiefCommunicatiePO
NORAD 48237·PAYLOAD·🇬🇧 United Kingdom

Gelanceerd Apr 25, 2021 vanaf Vostochny Cosmodrome

Loading…

Volgende Passages (komende 24 uur)

TLE

VersSource: CelesTrak SupGP

Epoch: Sep 14, 2026, 17:49 UTC

1 48237C 21031AD  26257.74250417 -.00000489  00000+0 -13215-2 0  2576
2 48237  87.8899 271.8490 0002101  88.3553  12.7109 13.14505891    10

Volg ONEWEB-0194 in realtime met AllMySat

Download on the App Store